LANDSAT 9

Last updated on Thu Nov 21 2024 00:02:28 GMT+0000 (Coordinated Universal Time)

1 49260U 21088A 24325.11984544 .00000958 00000+0 22270-3 0 9999 2 49260 98.2161 32.7271 0001268 83.7575 276.3768 14.57092529167405
UTC large
Height (km)
Speed (km/s)
/
Latitude / Longitude
Inclination (degrees)
Orbital Period (minutes)
Azimuth
Elevation
Range (km)
Doppler Factor

Next 0 passes for location: London (51.5072 / 0.1276)

Sorry there are no passes over London.